User: anonymous   Login
Location: Unspecified
(0.0000°N, 0.0000°E)
Time: 16:32:57
(UTC+00:00)
Language:

NNS O-2 - Orbit

View from above orbital plane
View from above orbital plane
View from above satellite
View from above satellite

Ground track
Ground track

The orbit data is extracted from the following two-line orbital elements,

1   965U 64083D   17204.58217068 +.00000017 +00000-0 +10766-4 0  9994
2   965 090.0084 191.7191 0042285 062.0189 075.3901 13.56703707602933
Epoch (UTC): 23 July 2017 13:58:19
Eccentricity: 0.0042285
inclination: 90.0084°
perigee height: 1016 km
apogee height: 1079 km
right ascension of ascending node: 191.7191°
argument of perigee: 62.0189°
revolutions per day: 13.56703707
mean anomaly at epoch: 75.3901°
orbit number at epoch: 60293

The dashed part of the orbit path shows where the satellite is in the earth's shadow,  

DLR